Time,TemperatureF,DewpointF,PressureIn,WindDirection,WindDirectionDegrees,WindSpeedMPH,WindSpeedGustMPH,Humidity,HourlyPrecipIn,Conditions,Clouds,dailyrainin,SoftwareType,DateUTC
2013-01-27 00:03:00,29.8,15.9,30.14,SSE,158,5.8,8.9,56,0.00,,,0.00,WUHU216HW,2013-01-27 06:03:00,
2013-01-27 00:08:00,29.6,15.8,30.14,SSE,158,3.1,5.8,56,0.00,,,0.00,WUHU216HW,2013-01-27 06:08:00,
2013-01-27 00:13:00,29.4,15.6,30.13,SE,135,4.9,4.9,56,0.00,,,0.00,WUHU216HW,2013-01-27 06:13:00,
2013-01-27 00:18:00,29.4,16.0,30.13,SSE,158,5.1,5.1,57,0.00,,,0.00,WUHU216HW,2013-01-27 06:18:00,
2013-01-27 00:23:00,29.6,16.2,30.14,SE,135,3.1,5.1,57,0.00,,,0.00,WUHU216HW,2013-01-27 06:23:00,
2013-01-27 00:28:00,29.4,16.0,30.13,ESE,113,5.8,5.8,57,0.00,,,0.00,WUHU216HW,2013-01-27 06:28:00,
2013-01-27 00:33:00,29.4,16.0,30.13,SSE,158,5.5,5.8,57,0.00,,,0.00,WUHU216HW,2013-01-27 06:33:00,
2013-01-27 00:38:00,29.4,16.0,30.13,SE,135,4.4,5.8,57,0.00,,,0.00,WUHU216HW,2013-01-27 06:38:00,
2013-01-27 00:43:00,29.6,16.2,30.13,SSE,158,3.8,4.4,57,0.00,,,0.00,WUHU216HW,2013-01-27 06:43:00,
2013-01-27 00:48:00,29.4,16.0,30.12,ESE,113,4.0,4.9,57,0.00,,,0.00,WUHU216HW,2013-01-27 06:48:00,
2013-01-27 00:53:00,29.8,16.3,30.12,SSE,158,4.4,6.9,57,0.00,,,0.00,WUHU216HW,2013-01-27 06:53:00,
2013-01-27 00:58:00,29.8,16.3,30.12,SSE,158,2.6,6.9,57,0.00,,,0.00,WUHU216HW,2013-01-27 06:58:00,
2013-01-27 01:03:00,29.8,16.3,30.13,South,180,5.3,5.3,57,0.00,,,0.00,WUHU216HW,2013-01-27 07:03:00,
2013-01-27 01:08:00,29.6,16.2,30.12,SE,135,5.1,5.3,57,0.00,,,0.00,WUHU216HW,2013-01-27 07:08:00,
2013-01-27 01:13:00,29.8,16.3,30.12,SE,135,8.9,8.9,57,0.00,,,0.00,WUHU216HW,2013-01-27 07:13:00,
2013-01-27 01:18:00,29.8,16.3,30.11,SSE,158,4.0,8.9,57,0.00,,,0.00,WUHU216HW,2013-01-27 07:18:00,
2013-01-27 01:23:00,29.8,16.3,30.11,SSE,158,7.6,8.9,57,0.00,,,0.00,WUHU216HW,2013-01-27 07:23:00,
2013-01-27 01:28:00,29.8,16.3,30.12,SSE,158,4.6,7.6,57,0.00,,,0.00,WUHU216HW,2013-01-27 07:28:00,
2013-01-27 01:33:00,29.8,16.3,30.11,ESE,113,3.5,7.6,57,0.00,,,0.00,WUHU216HW,2013-01-27 07:33:00,
2013-01-27 01:38:00,29.6,16.2,30.11,SSE,158,5.3,6.7,57,0.00,,,0.00,WUHU216HW,2013-01-27 07:38:00,
2013-01-27 01:43:00,29.4,16.4,30.11,SE,135,4.9,5.3,58,0.00,,,0.00,WUHU216HW,2013-01-27 07:43:00,
2013-01-27 01:48:00,29.4,16.4,30.12,SSE,158,5.5,5.5,58,0.00,,,0.00,WUHU216HW,2013-01-27 07:48:00,
2013-01-27 01:53:00,29.3,16.3,30.11,SSE,158,3.1,6.9,58,0.00,,,0.00,WUHU216HW,2013-01-27 07:53:00,
2013-01-27 01:58:00,29.3,16.3,30.11,South,180,3.8,6.9,58,0.00,,,0.00,WUHU216HW,2013-01-27 07:58:00,
2013-01-27 02:03:00,29.1,16.1,30.11,SE,135,5.5,5.5,58,0.00,,,0.00,WUHU216HW,2013-01-27 08:03:00,
2013-01-27 02:08:00,29.1,16.5,30.11,ESE,113,10.0,10.0,59,0.00,,,0.00,WUHU216HW,2013-01-27 08:08:00,
2013-01-27 02:13:00,29.1,16.5,30.10,SE,135,7.1,10.0,59,0.00,,,0.00,WUHU216HW,2013-01-27 08:13:00,
2013-01-27 02:18:00,29.1,16.5,30.10,SE,135,7.6,10.0,59,0.00,,,0.00,WUHU216HW,2013-01-27 08:18:00,
2013-01-27 02:23:00,29.1,16.5,30.10,SSE,158,4.6,8.5,59,0.00,,,0.00,WUHU216HW,2013-01-27 08:23:00,
2013-01-27 02:28:00,29.1,16.5,30.10,SE,135,5.3,8.5,59,0.00,,,0.00,WUHU216HW,2013-01-27 08:28:00,
2013-01-27 02:33:00,29.1,16.5,30.10,SSE,158,6.7,7.6,59,0.00,,,0.00,WUHU216HW,2013-01-27 08:33:00,
2013-01-27 02:38:00,29.1,16.5,30.10,SE,135,6.2,7.6,59,0.00,,,0.00,WUHU216HW,2013-01-27 08:38:00,
2013-01-27 02:43:00,29.1,16.5,30.10,SE,135,4.4,7.6,59,0.00,,,0.00,WUHU216HW,2013-01-27 08:43:00,
2013-01-27 02:48:00,29.1,16.5,30.09,SE,135,6.4,6.4,59,0.00,,,0.00,WUHU216HW,2013-01-27 08:48:00,
2013-01-27 02:53:00,29.1,16.9,30.09,SE,135,9.8,9.8,60,0.00,,,0.00,WUHU216HW,2013-01-27 08:53:00,
2013-01-27 02:58:00,29.3,17.1,30.09,SSE,158,7.3,9.8,60,0.00,,,0.00,WUHU216HW,2013-01-27 08:58:00,
2013-01-27 03:03:00,29.1,16.9,30.09,South,180,2.6,9.8,60,0.00,,,0.00,WUHU216HW,2013-01-27 09:03:00,
2013-01-27 03:08:00,29.3,17.1,30.09,ESE,113,6.7,7.3,60,0.00,,,0.00,WUHU216HW,2013-01-27 09:08:00,
2013-01-27 03:13:00,29.3,17.1,30.08,SSE,158,2.6,6.7,60,0.00,,,0.00,WUHU216HW,2013-01-27 09:13:00,
2013-01-27 03:18:00,29.4,17.3,30.08,ESE,113,2.2,6.7,60,0.00,,,0.00,WUHU216HW,2013-01-27 09:18:00,
2013-01-27 03:23:00,29.4,17.3,30.08,SE,135,5.8,8.9,60,0.00,,,0.00,WUHU216HW,2013-01-27 09:23:00,
2013-01-27 03:28:00,29.6,17.4,30.08,SSE,158,4.0,8.9,60,0.00,,,0.00,WUHU216HW,2013-01-27 09:28:00,
2013-01-27 03:33:00,29.6,17.4,30.07,SSE,158,6.0,7.6,60,0.00,,,0.00,WUHU216HW,2013-01-27 09:33:00,
2013-01-27 03:38:00,29.8,17.6,30.07,SE,135,3.5,7.6,60,0.00,,,0.00,WUHU216HW,2013-01-27 09:38:00,
2013-01-27 03:43:00,30.0,17.7,30.06,SE,135,4.0,7.1,60,0.00,,,0.00,WUHU216HW,2013-01-27 09:43:00,
2013-01-27 03:48:00,30.0,17.7,30.06,SSE,158,4.2,7.1,60,0.00,,,0.00,WUHU216HW,2013-01-27 09:48:00,
2013-01-27 03:53:00,30.0,17.7,30.06,SSE,158,8.5,8.5,60,0.00,,,0.00,WUHU216HW,2013-01-27 09:53:00,
2013-01-27 03:58:00,30.0,17.7,30.06,SSE,158,3.5,8.5,60,0.00,,,0.00,WUHU216HW,2013-01-27 09:58:00,
2013-01-27 04:03:00,30.2,17.9,30.06,SSE,158,3.3,8.5,60,0.00,,,0.00,WUHU216HW,2013-01-27 10:03:00,
2013-01-27 04:08:00,30.2,17.9,30.06,SE,135,8.9,8.9,60,0.00,,,0.00,WUHU216HW,2013-01-27 10:08:00,
2013-01-27 04:13:00,30.3,18.1,30.05,East,90,10.5,10.5,60,0.00,,,0.00,WUHU216HW,2013-01-27 10:13:00,
2013-01-27 04:18:00,30.5,18.3,30.05,ESE,113,5.1,10.5,60,0.00,,,0.00,WUHU216HW,2013-01-27 10:18:00,
2013-01-27 04:23:00,30.7,18.5,30.05,SE,135,6.4,6.4,60,0.00,,,0.00,WUHU216HW,2013-01-27 10:23:00,
2013-01-27 04:28:00,30.7,18.5,30.05,SSE,158,6.2,6.4,60,0.00,,,0.00,WUHU216HW,2013-01-27 10:28:00,
2013-01-27 04:33:00,30.7,18.5,30.05,South,180,5.8,6.2,60,0.00,,,0.00,WUHU216HW,2013-01-27 10:33:00,
2013-01-27 04:38:00,30.9,18.6,30.05,SSE,158,2.9,11.4,60,0.00,,,0.00,WUHU216HW,2013-01-27 10:38:00,
2013-01-27 04:43:00,30.9,18.6,30.05,SSE,158,3.1,11.4,60,0.00,,,0.00,WUHU216HW,2013-01-27 10:43:00,
2013-01-27 04:48:00,30.9,18.6,30.06,South,180,4.0,4.6,60,0.00,,,0.00,WUHU216HW,2013-01-27 10:48:00,
2013-01-27 04:53:00,30.9,18.6,30.05,SSE,158,5.3,5.3,60,0.00,,,0.00,WUHU216HW,2013-01-27 10:53:00,
2013-01-27 04:58:00,31.1,18.8,30.06,SE,135,5.1,5.3,60,0.00,,,0.00,WUHU216HW,2013-01-27 10:58:00,
2013-01-27 05:03:00,31.1,18.8,30.05,SE,135,7.3,8.9,60,0.00,,,0.00,WUHU216HW,2013-01-27 11:03:00,
2013-01-27 05:08:00,31.1,19.2,30.05,SE,135,3.3,8.9,61,0.00,,,0.00,WUHU216HW,2013-01-27 11:08:00,
2013-01-27 05:13:00,30.9,19.4,30.05,South,180,3.8,7.3,62,0.00,,,0.00,WUHU216HW,2013-01-27 11:13:00,
2013-01-27 05:18:00,30.5,19.7,30.05,SSE,158,4.9,5.1,64,0.00,,,0.00,WUHU216HW,2013-01-27 11:18:00,
2013-01-27 05:23:00,30.3,19.5,30.06,South,180,8.2,9.8,64,0.00,,,0.00,WUHU216HW,2013-01-27 11:23:00,
2013-01-27 05:28:00,30.3,19.9,30.05,SSE,158,7.8,9.8,65,0.00,,,0.00,WUHU216HW,2013-01-27 11:28:00,
2013-01-27 05:33:00,30.2,20.1,30.05,South,180,3.3,7.8,66,0.00,,,0.00,WUHU216HW,2013-01-27 11:33:00,
2013-01-27 05:38:00,30.2,20.4,30.04,SSE,158,9.8,9.8,67,0.00,,,0.00,WUHU216HW,2013-01-27 11:38:00,
2013-01-27 05:43:00,30.2,20.8,30.04,South,180,6.2,9.8,68,0.00,,,0.00,WUHU216HW,2013-01-27 11:43:00,
2013-01-27 05:48:00,30.0,21.3,30.05,SSE,158,6.7,8.9,70,0.00,,,0.00,WUHU216HW,2013-01-27 11:48:00,
2013-01-27 05:53:00,30.0,21.7,30.05,South,180,3.3,6.7,71,0.00,,,0.00,WUHU216HW,2013-01-27 11:53:00,
2013-01-27 05:58:00,30.0,22.0,30.05,SSE,158,4.9,6.7,72,0.00,,,0.00,WUHU216HW,2013-01-27 11:58:00,
2013-01-27 06:03:00,30.0,22.6,30.06,SSE,158,5.3,5.3,74,0.00,,,0.00,WUHU216HW,2013-01-27 12:03:00,
2013-01-27 06:08:00,30.0,22.6,30.06,South,180,6.0,6.0,74,0.00,,,0.00,WUHU216HW,2013-01-27 12:08:00,
2013-01-27 06:13:00,30.0,22.6,30.06,South,180,4.4,6.0,74,0.00,,,0.00,WUHU216HW,2013-01-27 12:13:00,
2013-01-27 06:18:00,30.0,23.3,30.06,SSE,158,3.5,5.8,76,0.00,,,0.00,WUHU216HW,2013-01-27 12:18:00,
2013-01-27 06:23:00,30.0,23.3,30.06,SSE,158,3.5,5.8,76,0.00,,,0.00,WUHU216HW,2013-01-27 12:23:00,
2013-01-27 06:28:00,30.0,23.6,30.05,SSE,158,2.4,3.8,77,0.00,,,0.00,WUHU216HW,2013-01-27 12:28:00,
2013-01-27 06:33:00,30.3,24.3,30.06,SSE,158,4.4,6.2,78,0.00,,,0.00,WUHU216HW,2013-01-27 12:33:00,
2013-01-27 06:38:00,30.2,24.1,30.06,South,180,4.4,7.1,78,0.00,,,0.00,WUHU216HW,2013-01-27 12:38:00,
2013-01-27 06:43:00,30.0,23.9,30.06,SSE,158,4.0,7.1,78,0.00,,,0.00,WUHU216HW,2013-01-27 12:43:00,
2013-01-27 06:48:00,30.0,24.2,30.06,South,180,3.1,6.0,79,0.00,,,0.00,WUHU216HW,2013-01-27 12:48:00,
2013-01-27 06:53:00,30.0,24.2,30.05,SSE,158,2.9,5.3,79,0.00,,,0.00,WUHU216HW,2013-01-27 12:53:00,
2013-01-27 06:58:00,30.0,24.2,30.05,SSE,158,3.3,5.8,79,0.00,,,0.00,WUHU216HW,2013-01-27 12:58:00,
2013-01-27 07:03:00,30.0,24.6,30.05,South,180,3.5,5.8,80,0.00,,,0.00,WUHU216HW,2013-01-27 13:03:00,
2013-01-27 07:08:00,30.0,24.6,30.04,South,180,9.1,9.1,80,0.00,,,0.00,WUHU216HW,2013-01-27 13:08:00,
2013-01-27 07:13:00,29.8,24.4,30.04,South,180,3.3,9.1,80,0.00,,,0.00,WUHU216HW,2013-01-27 13:13:00,
2013-01-27 07:18:00,29.8,24.4,30.04,SE,135,6.0,6.0,80,0.00,,,0.00,WUHU216HW,2013-01-27 13:18:00,
2013-01-27 07:23:00,29.6,24.2,30.03,ESE,113,4.9,6.9,80,0.00,,,0.00,WUHU216HW,2013-01-27 13:23:00,
2013-01-27 07:28:00,29.8,24.7,30.02,SE,135,2.4,6.9,81,0.00,,,0.00,WUHU216HW,2013-01-27 13:28:00,
2013-01-27 07:33:00,29.8,24.7,30.02,SSE,158,3.5,6.0,81,0.00,,,0.00,WUHU216HW,2013-01-27 13:33:00,
2013-01-27 07:38:00,30.0,25.1,30.02,SE,135,4.0,5.1,82,0.00,,,0.00,WUHU216HW,2013-01-27 13:38:00,
2013-01-27 07:44:00,30.0,25.1,30.02,SSE,158,2.9,5.1,82,0.00,,,0.00,WUHU216HW,2013-01-27 13:44:00,
2013-01-27 07:49:00,29.8,25.0,30.01,SE,135,4.2,5.1,82,0.00,,,0.00,WUHU216HW,2013-01-27 13:49:00,
2013-01-27 07:53:00,30.0,25.1,30.01,SE,135,2.4,4.9,82,0.00,,,0.00,WUHU216HW,2013-01-27 13:53:00,
2013-01-27 07:58:00,29.8,25.3,30.01,SE,135,4.6,4.9,83,0.00,,,0.00,WUHU216HW,2013-01-27 13:58:00,
2013-01-27 08:03:00,30.0,25.4,29.99,SE,135,3.5,6.7,83,0.00,,,0.00,WUHU216HW,2013-01-27 14:03:00,
2013-01-27 08:08:00,30.0,25.4,29.99,SE,135,6.4,6.7,83,0.00,,,0.00,WUHU216HW,2013-01-27 14:08:00,
2013-01-27 08:13:00,30.0,25.4,29.98,SE,135,2.0,6.4,83,0.00,,,0.00,WUHU216HW,2013-01-27 14:13:00,
2013-01-27 08:18:00,30.2,25.9,29.98,East,90,3.8,6.4,84,0.00,,,0.00,WUHU216HW,2013-01-27 14:18:00,
2013-01-27 08:23:00,30.3,26.1,29.98,SSE,158,6.0,6.4,84,0.00,,,0.00,WUHU216HW,2013-01-27 14:23:00,
2013-01-27 08:28:00,30.5,26.3,29.98,SE,135,4.2,6.0,84,0.00,,,0.00,WUHU216HW,2013-01-27 14:28:00,
2013-01-27 08:33:00,30.5,26.3,29.97,SSE,158,4.2,5.1,84,0.00,,,0.00,WUHU216HW,2013-01-27 14:33:00,
2013-01-27 08:38:00,30.5,26.6,29.97,SSE,158,6.2,6.2,85,0.00,,,0.00,WUHU216HW,2013-01-27 14:38:00,
2013-01-27 08:43:00,30.5,26.6,29.96,ESE,113,3.8,6.2,85,0.00,,,0.00,WUHU216HW,2013-01-27 14:43:00,
2013-01-27 08:48:00,30.5,26.6,29.96,SE,135,4.2,5.5,85,0.00,,,0.00,WUHU216HW,2013-01-27 14:48:00,
2013-01-27 08:54:00,30.5,26.6,29.96,ESE,113,3.3,5.1,85,0.00,,,0.00,WUHU216HW,2013-01-27 14:54:00,
2013-01-27 08:59:00,30.5,26.6,29.96,SSE,158,5.8,5.8,85,0.00,,,0.00,WUHU216HW,2013-01-27 14:59:00,
2013-01-27 09:04:00,30.7,27.0,29.97,SSE,158,2.0,5.8,86,0.00,,,0.00,WUHU216HW,2013-01-27 15:04:00,
2013-01-27 09:09:00,30.7,27.0,29.97,SE,135,2.9,5.8,86,0.00,,,0.00,WUHU216HW,2013-01-27 15:09:00,
2013-01-27 09:14:00,30.7,27.0,29.97,South,180,3.1,5.8,86,0.00,,,0.00,WUHU216HW,2013-01-27 15:14:00,
2013-01-27 09:19:00,31.1,27.4,29.97,ESE,113,2.4,3.5,86,0.00,,,0.00,WUHU216HW,2013-01-27 15:19:00,
2013-01-27 09:24:00,31.2,27.6,29.99,South,180,3.5,3.5,86,0.00,,,0.00,WUHU216HW,2013-01-27 15:24:00,
2013-01-27 09:29:00,31.2,27.6,30.00,South,180,7.8,7.8,86,0.00,,,0.00,WUHU216HW,2013-01-27 15:29:00,
2013-01-27 09:34:00,31.2,27.6,29.99,SSE,158,1.5,7.8,86,0.00,,,0.00,WUHU216HW,2013-01-27 15:34:00,
2013-01-27 09:39:00,31.2,27.6,29.98,SSE,158,2.9,4.9,86,0.00,,,0.00,WUHU216HW,2013-01-27 15:39:00,
2013-01-27 09:44:00,31.2,27.6,29.96,SSE,158,3.8,4.0,86,0.00,,,0.00,WUHU216HW,2013-01-27 15:44:00,
2013-01-27 09:49:00,31.8,28.1,29.96,SSE,158,3.5,6.9,86,0.00,,,0.00,WUHU216HW,2013-01-27 15:49:00,
2013-01-27 09:54:00,31.8,28.1,29.96,SSE,158,3.8,6.9,86,0.00,,,0.00,WUHU216HW,2013-01-27 15:54:00,
2013-01-27 09:59:00,31.6,27.9,29.96,SSE,158,6.2,6.2,86,0.00,,,0.00,WUHU216HW,2013-01-27 15:59:00,
2013-01-27 10:04:00,31.6,28.2,29.95,SSE,158,2.6,6.2,87,0.00,,,0.00,WUHU216HW,2013-01-27 16:04:00,
2013-01-27 10:09:00,31.6,28.2,29.95,SSE,158,3.8,4.9,87,0.00,,,0.00,WUHU216HW,2013-01-27 16:09:00,
2013-01-27 10:14:00,31.6,28.2,29.96,SSE,158,6.7,6.7,87,0.00,,,0.00,WUHU216HW,2013-01-27 16:14:00,
2013-01-27 10:19:00,31.8,28.4,29.95,SSE,158,5.3,6.7,87,0.00,,,0.00,WUHU216HW,2013-01-27 16:19:00,
2013-01-27 10:24:00,31.8,28.4,29.96,SSE,158,3.1,5.3,87,0.00,,,0.00,WUHU216HW,2013-01-27 16:24:00,
2013-01-27 10:29:00,31.8,28.4,29.96,SSE,158,5.8,5.8,87,0.00,,,0.00,WUHU216HW,2013-01-27 16:29:00,
2013-01-27 10:34:00,32.0,28.6,29.95,SSE,158,4.6,6.2,87,0.00,,,0.00,WUHU216HW,2013-01-27 16:34:00,
2013-01-27 10:39:00,32.1,28.7,29.94,SSE,158,4.2,6.2,87,0.00,,,0.00,WUHU216HW,2013-01-27 16:39:00,
2013-01-27 10:44:00,32.1,28.7,29.93,SSE,158,8.0,8.0,87,0.00,,,0.00,WUHU216HW,2013-01-27 16:44:00,
2013-01-27 10:49:00,32.1,29.0,29.93,SSE,158,2.6,8.0,88,0.00,,,0.00,WUHU216HW,2013-01-27 16:49:00,
2013-01-27 10:54:00,32.1,29.0,29.93,SSE,158,5.3,5.5,88,0.00,,,0.00,WUHU216HW,2013-01-27 16:54:00,
2013-01-27 10:59:00,32.1,29.0,29.93,SSE,158,2.6,5.3,88,0.00,,,0.00,WUHU216HW,2013-01-27 16:59:00,
2013-01-27 11:04:00,32.1,29.0,29.93,SSE,158,3.8,5.5,88,0.00,,,0.00,WUHU216HW,2013-01-27 17:04:00,
2013-01-27 11:09:00,32.1,29.0,29.92,SSE,158,3.8,5.5,88,0.00,,,0.00,WUHU216HW,2013-01-27 17:09:00,
2013-01-27 11:14:00,32.1,29.0,29.92,SSE,158,1.7,6.2,88,0.00,,,0.00,WUHU216HW,2013-01-27 17:14:00,
2013-01-27 11:19:00,32.3,29.2,29.92,SSE,158,3.1,6.2,88,0.00,,,0.00,WUHU216HW,2013-01-27 17:19:00,
2013-01-27 11:24:00,32.1,29.0,29.91,SSE,158,2.9,5.5,88,0.00,,,0.00,WUHU216HW,2013-01-27 17:24:00,
2013-01-27 11:29:00,32.3,29.5,29.90,SSE,158,5.5,5.5,89,0.00,,,0.00,WUHU216HW,2013-01-27 17:29:00,
2013-01-27 11:34:00,32.1,29.3,29.89,SSE,158,5.5,5.8,89,0.00,,,0.00,WUHU216HW,2013-01-27 17:34:00,
2013-01-27 11:39:00,32.1,29.3,29.90,SSE,158,2.0,5.8,89,0.00,,,0.00,WUHU216HW,2013-01-27 17:39:00,
2013-01-27 11:44:00,32.3,29.5,29.90,SSE,158,3.1,5.3,89,0.00,,,0.00,WUHU216HW,2013-01-27 17:44:00,
2013-01-27 11:49:00,32.3,29.5,29.89,SSE,158,4.4,5.3,89,0.00,,,0.00,WUHU216HW,2013-01-27 17:49:00,
2013-01-27 11:54:00,32.3,29.5,29.88,SSE,158,2.4,4.6,89,0.00,,,0.00,WUHU216HW,2013-01-27 17:54:00,
2013-01-27 11:59:00,32.3,29.5,29.88,SSE,158,3.8,4.6,89,0.00,,,0.00,WUHU216HW,2013-01-27 17:59:00,
2013-01-27 12:04:00,32.3,29.5,29.88,SSE,158,2.9,3.8,89,0.00,,,0.00,WUHU216HW,2013-01-27 18:04:00,
2013-01-27 12:09:00,32.3,29.5,29.88,SSE,158,4.2,4.2,89,0.00,,,0.00,WUHU216HW,2013-01-27 18:09:00,
2013-01-27 12:14:00,32.3,29.5,29.87,SSE,158,3.8,4.2,89,0.00,,,0.00,WUHU216HW,2013-01-27 18:14:00,
2013-01-27 12:19:00,32.3,29.5,29.87,SSE,158,4.2,4.2,89,0.00,,,0.00,WUHU216HW,2013-01-27 18:19:00,
2013-01-27 12:24:00,32.3,29.5,29.86,SSE,158,3.3,4.2,89,0.00,,,0.00,WUHU216HW,2013-01-27 18:24:00,
2013-01-27 12:29:00,32.3,29.5,29.86,SSE,158,3.5,4.2,89,0.00,,,0.00,WUHU216HW,2013-01-27 18:29:00,
2013-01-27 12:34:00,32.3,29.5,29.86,SSE,158,2.4,4.2,89,0.00,,,0.00,WUHU216HW,2013-01-27 18:34:00,
2013-01-27 12:39:00,32.3,29.5,29.86,SSE,158,2.9,3.5,89,0.00,,,0.00,WUHU216HW,2013-01-27 18:39:00,
2013-01-27 12:44:00,32.3,29.8,29.86,SSE,158,2.9,4.6,90,0.00,,,0.00,WUHU216HW,2013-01-27 18:44:00,
2013-01-27 12:49:00,32.3,29.8,29.85,SSE,158,0.8,4.6,90,0.00,,,0.00,WUHU216HW,2013-01-27 18:49:00,
2013-01-27 12:54:00,32.3,29.8,29.85,SSE,158,1.5,6.2,90,0.00,,,0.00,WUHU216HW,2013-01-27 18:54:00,
2013-01-27 12:59:00,32.3,29.8,29.85,SSE,158,2.4,6.2,90,0.00,,,0.00,WUHU216HW,2013-01-27 18:59:00,
2013-01-27 13:04:00,32.3,29.8,29.84,SSE,158,3.8,3.8,90,0.00,,,0.00,WUHU216HW,2013-01-27 19:04:00,
2013-01-27 13:09:00,32.3,29.8,29.83,SSE,158,5.3,5.3,90,0.00,,,0.00,WUHU216HW,2013-01-27 19:09:00,
2013-01-27 13:14:00,32.3,29.8,29.83,SSE,158,3.5,5.3,90,0.00,,,0.00,WUHU216HW,2013-01-27 19:14:00,
2013-01-27 13:19:00,32.3,29.8,29.83,SSE,158,3.5,10.5,90,0.02,,,0.02,WUHU216HW,2013-01-27 19:19:00,
2013-01-27 13:24:00,32.5,29.9,29.83,SSE,158,2.4,10.5,90,0.02,,,0.02,WUHU216HW,2013-01-27 19:24:00,
2013-01-27 13:30:00,32.5,29.9,29.83,SSE,158,1.1,4.2,90,0.02,,,0.02,WUHU216HW,2013-01-27 19:30:00,
2013-01-27 13:34:00,32.3,29.8,29.82,SSE,158,2.9,4.2,90,0.02,,,0.02,WUHU216HW,2013-01-27 19:34:00,
2013-01-27 13:39:00,32.5,29.9,29.82,SSE,158,4.6,4.6,90,0.02,,,0.02,WUHU216HW,2013-01-27 19:39:00,
2013-01-27 13:44:00,32.5,29.9,29.81,SSE,158,4.4,4.6,90,0.02,,,0.02,WUHU216HW,2013-01-27 19:44:00,
2013-01-27 13:50:00,32.5,29.9,29.81,SSE,158,3.3,4.6,90,0.02,,,0.02,WUHU216HW,2013-01-27 19:50:00,
2013-01-27 13:55:00,32.5,29.9,29.80,SSE,158,6.9,6.9,90,0.02,,,0.02,WUHU216HW,2013-01-27 19:55:00,
2013-01-27 14:00:00,32.5,29.9,29.80,SSE,158,5.5,6.9,90,0.02,,,0.02,WUHU216HW,2013-01-27 20:00:00,
2013-01-27 14:05:00,32.7,30.3,29.81,SSE,158,4.4,6.9,91,0.02,,,0.02,WUHU216HW,2013-01-27 20:05:00,
2013-01-27 14:10:00,32.5,30.2,29.80,SSE,158,1.5,4.4,91,0.02,,,0.02,WUHU216HW,2013-01-27 20:10:00,
2013-01-27 14:15:00,32.7,30.3,29.79,SSE,158,4.6,4.6,91,0.00,,,0.02,WUHU216HW,2013-01-27 20:15:00,
2013-01-27 14:20:00,32.7,30.3,29.80,SSE,158,3.8,4.6,91,0.00,,,0.02,WUHU216HW,2013-01-27 20:20:00,
2013-01-27 14:25:00,32.7,30.3,29.79,SSE,158,3.1,5.5,91,0.00,,,0.02,WUHU216HW,2013-01-27 20:25:00,
2013-01-27 14:30:00,32.5,30.2,29.79,SSE,158,2.2,5.5,91,0.00,,,0.02,WUHU216HW,2013-01-27 20:30:00,
2013-01-27 14:35:00,32.7,30.3,29.79,SSE,158,2.6,3.1,91,0.00,,,0.02,WUHU216HW,2013-01-27 20:35:00,
2013-01-27 14:40:00,32.7,30.3,29.79,SSE,158,2.2,2.9,91,0.00,,,0.02,WUHU216HW,2013-01-27 20:40:00,
2013-01-27 14:45:00,32.7,30.3,29.79,SSE,158,2.4,2.9,91,0.00,,,0.02,WUHU216HW,2013-01-27 20:45:00,
2013-01-27 14:50:00,32.7,30.3,29.79,SSE,158,3.3,4.0,91,0.00,,,0.02,WUHU216HW,2013-01-27 20:50:00,
2013-01-27 14:55:00,32.9,30.5,29.79,SSE,158,2.6,4.0,91,0.00,,,0.02,WUHU216HW,2013-01-27 20:55:00,
2013-01-27 15:00:00,32.7,30.3,29.78,SSE,158,5.3,5.3,91,0.00,,,0.02,WUHU216HW,2013-01-27 21:00:00,
2013-01-27 15:05:00,32.9,30.5,29.79,SSE,158,2.9,5.3,91,0.00,,,0.02,WUHU216HW,2013-01-27 21:05:00,
2013-01-27 15:10:00,32.9,30.5,29.78,SSE,158,1.7,2.9,91,0.00,,,0.02,WUHU216HW,2013-01-27 21:10:00,
2013-01-27 15:15:00,32.9,30.5,29.78,SSE,158,4.4,4.4,91,0.00,,,0.02,WUHU216HW,2013-01-27 21:15:00,
2013-01-27 15:20:00,32.9,30.5,29.78,SSE,158,2.2,4.4,91,0.00,,,0.02,WUHU216HW,2013-01-27 21:20:00,
2013-01-27 15:25:00,33.0,30.7,29.78,SSE,158,1.7,3.5,91,0.00,,,0.02,WUHU216HW,2013-01-27 21:25:00,
2013-01-27 15:30:00,32.9,30.5,29.78,SSE,158,4.4,4.4,91,0.00,,,0.02,WUHU216HW,2013-01-27 21:30:00,
2013-01-27 15:35:00,33.0,30.7,29.78,SSE,158,2.2,4.4,91,0.00,,,0.02,WUHU216HW,2013-01-27 21:35:00,
2013-01-27 15:40:00,33.0,30.7,29.77,SSE,158,2.6,6.2,91,0.00,,,0.02,WUHU216HW,2013-01-27 21:40:00,
2013-01-27 15:45:00,33.2,30.8,29.77,SSE,158,3.1,6.2,91,0.00,,,0.02,WUHU216HW,2013-01-27 21:45:00,
2013-01-27 15:50:00,33.0,30.7,29.77,SSE,158,5.3,5.3,91,0.00,,,0.02,WUHU216HW,2013-01-27 21:50:00,
2013-01-27 15:55:00,33.0,30.7,29.77,SSE,158,3.8,5.3,91,0.00,,,0.02,WUHU216HW,2013-01-27 21:55:00,
2013-01-27 16:00:00,33.2,30.8,29.77,SSE,158,4.6,5.3,91,0.00,,,0.02,WUHU216HW,2013-01-27 22:00:00,
2013-01-27 16:05:00,33.4,31.0,29.76,SSE,158,2.4,7.8,91,0.00,,,0.02,WUHU216HW,2013-01-27 22:05:00,
2013-01-27 16:10:00,33.6,31.1,29.76,SSE,158,4.0,7.8,91,0.00,,,0.02,WUHU216HW,2013-01-27 22:10:00,
2013-01-27 16:15:00,33.6,31.1,29.76,South,180,6.4,6.4,91,0.00,,,0.02,WUHU216HW,2013-01-27 22:15:00,
2013-01-27 16:20:00,33.8,31.3,29.76,SE,135,5.5,6.4,91,0.00,,,0.02,WUHU216HW,2013-01-27 22:20:00,
2013-01-27 16:25:00,33.9,31.5,29.76,SE,135,3.1,6.4,91,0.00,,,0.02,WUHU216HW,2013-01-27 22:25:00,
2013-01-27 16:30:00,34.3,31.9,29.76,SE,135,4.4,5.5,91,0.00,,,0.02,WUHU216HW,2013-01-27 22:30:00,
2013-01-27 16:35:00,34.3,31.9,29.76,SSE,158,7.6,7.6,91,0.00,,,0.02,WUHU216HW,2013-01-27 22:35:00,
2013-01-27 16:40:00,34.3,31.9,29.75,SSE,158,3.1,7.8,91,0.00,,,0.02,WUHU216HW,2013-01-27 22:40:00,
2013-01-27 16:45:00,34.5,32.0,29.76,South,180,4.4,7.8,91,0.00,,,0.02,WUHU216HW,2013-01-27 22:45:00,
2013-01-27 16:50:00,34.7,32.2,29.76,SSE,158,4.6,4.6,91,0.00,,,0.02,WUHU216HW,2013-01-27 22:50:00,
2013-01-27 16:55:00,34.7,32.2,29.75,SSE,158,4.2,4.6,91,0.00,,,0.02,WUHU216HW,2013-01-27 22:55:00,
2013-01-27 17:00:00,34.8,32.4,29.75,SSE,158,4.6,4.6,91,0.00,,,0.02,WUHU216HW,2013-01-27 23:00:00,
2013-01-27 17:05:00,34.8,32.4,29.75,SSE,158,8.9,8.9,91,0.00,,,0.02,WUHU216HW,2013-01-27 23:05:00,
2013-01-27 17:10:00,35.0,32.6,29.75,SE,135,3.8,8.9,91,0.00,,,0.02,WUHU216HW,2013-01-27 23:10:00,
2013-01-27 17:15:00,35.2,32.8,29.75,SSE,158,4.9,8.9,91,0.00,,,0.02,WUHU216HW,2013-01-27 23:15:00,
2013-01-27 17:20:00,35.2,32.8,29.75,SSE,158,0.6,4.9,91,0.00,,,0.02,WUHU216HW,2013-01-27 23:20:00,
2013-01-27 17:25:00,35.2,32.8,29.74,SSE,158,1.5,5.1,91,0.00,,,0.02,WUHU216HW,2013-01-27 23:25:00,
2013-01-27 17:30:00,35.4,32.9,29.74,SSE,158,5.1,6.2,91,0.00,,,0.02,WUHU216HW,2013-01-27 23:30:00,
2013-01-27 17:36:00,35.4,32.9,29.74,SSE,158,3.1,6.2,91,0.00,,,0.02,WUHU216HW,2013-01-27 23:36:00,
2013-01-27 17:41:00,35.6,33.1,29.74,ESE,113,2.4,6.0,91,0.00,,,0.02,WUHU216HW,2013-01-27 23:41:00,
2013-01-27 17:46:00,35.7,33.3,29.74,South,180,5.3,6.0,91,0.00,,,0.02,WUHU216HW,2013-01-27 23:46:00,
2013-01-27 17:51:00,35.7,33.3,29.74,SSE,158,3.8,5.3,91,0.00,,,0.02,WUHU216HW,2013-01-27 23:51:00,
2013-01-27 17:56:00,35.9,33.5,29.74,South,180,4.9,4.9,91,0.00,,,0.02,WUHU216HW,2013-01-27 23:56:00,
2013-01-27 18:01:00,36.1,33.7,29.74,SE,135,2.9,4.9,91,0.00,,,0.02,WUHU216HW,2013-01-28 00:01:00,
2013-01-27 18:06:00,36.1,33.7,29.74,SE,135,3.8,3.8,91,0.00,,,0.02,WUHU216HW,2013-01-28 00:06:00,
2013-01-27 18:11:00,36.3,33.8,29.74,SE,135,2.4,4.4,91,0.00,,,0.02,WUHU216HW,2013-01-28 00:11:00,
2013-01-27 18:16:00,36.3,33.8,29.74,SSE,158,3.8,4.4,91,0.00,,,0.02,WUHU216HW,2013-01-28 00:16:00,
2013-01-27 18:21:00,36.3,33.8,29.74,SE,135,4.0,4.0,91,0.00,,,0.02,WUHU216HW,2013-01-28 00:21:00,
2013-01-27 18:26:00,36.5,34.3,29.74,South,180,1.5,4.0,92,0.00,,,0.02,WUHU216HW,2013-01-28 00:26:00,
2013-01-27 18:31:00,36.5,34.3,29.74,SSE,158,3.5,4.0,92,0.00,,,0.02,WUHU216HW,2013-01-28 00:31:00,
2013-01-27 18:36:00,36.6,34.5,29.74,South,180,2.9,4.6,92,0.00,,,0.02,WUHU216HW,2013-01-28 00:36:00,
2013-01-27 18:41:00,36.8,34.7,29.74,SSE,158,0.6,4.6,92,0.00,,,0.02,WUHU216HW,2013-01-28 00:41:00,
2013-01-27 18:46:00,37.0,34.8,29.74,SSE,158,0.8,2.9,92,0.00,,,0.02,WUHU216HW,2013-01-28 00:46:00,
2013-01-27 18:51:00,37.0,34.8,29.75,SSE,158,2.6,2.9,92,0.00,,,0.02,WUHU216HW,2013-01-28 00:51:00,
2013-01-27 18:56:00,37.2,35.0,29.75,SSE,158,3.1,3.1,92,0.00,,,0.02,WUHU216HW,2013-01-28 00:56:00,
2013-01-27 19:01:00,37.2,35.0,29.75,SSE,158,0.0,3.1,92,0.00,,,0.02,WUHU216HW,2013-01-28 01:01:00,
2013-01-27 19:06:00,37.2,35.0,29.75,South,180,0.6,2.2,92,0.00,,,0.02,WUHU216HW,2013-01-28 01:06:00,
2013-01-27 19:11:00,37.2,35.0,29.75,SE,135,0.0,2.2,92,0.00,,,0.02,WUHU216HW,2013-01-28 01:11:00,
2013-01-27 19:16:00,37.4,35.2,29.75,SSE,158,2.0,2.0,92,0.00,,,0.02,WUHU216HW,2013-01-28 01:16:00,
2013-01-27 19:21:00,37.5,35.4,29.75,SSE,158,1.1,2.4,92,0.00,,,0.02,WUHU216HW,2013-01-28 01:21:00,
2013-01-27 19:26:00,37.5,35.4,29.75,South,180,1.3,2.4,92,0.00,,,0.02,WUHU216HW,2013-01-28 01:26:00,
2013-01-27 19:31:00,37.5,35.4,29.75,South,180,0.0,2.0,92,0.00,,,0.02,WUHU216HW,2013-01-28 01:31:00,
2013-01-27 19:36:00,37.7,35.6,29.75,SSE,158,1.5,1.7,92,0.00,,,0.02,WUHU216HW,2013-01-28 01:36:00,
2013-01-27 19:41:00,37.7,35.6,29.75,South,180,3.8,3.8,92,0.00,,,0.02,WUHU216HW,2013-01-28 01:41:00,
2013-01-27 19:46:00,37.9,35.7,29.74,South,180,2.2,3.8,92,0.00,,,0.02,WUHU216HW,2013-01-28 01:46:00,
2013-01-27 19:51:00,37.9,35.7,29.74,SSE,158,2.2,2.2,92,0.00,,,0.02,WUHU216HW,2013-01-28 01:51:00,
2013-01-27 19:56:00,37.9,35.7,29.74,ESE,113,0.8,3.3,92,0.00,,,0.02,WUHU216HW,2013-01-28 01:56:00,
2013-01-27 20:01:00,37.9,35.7,29.74,SSE,158,2.0,3.3,92,0.00,,,0.02,WUHU216HW,2013-01-28 02:01:00,
2013-01-27 20:06:00,38.1,35.9,29.74,SSE,158,3.3,3.3,92,0.00,,,0.02,WUHU216HW,2013-01-28 02:06:00,
2013-01-27 20:11:00,38.1,35.9,29.74,SSE,158,2.2,3.3,92,0.00,,,0.02,WUHU216HW,2013-01-28 02:11:00,
2013-01-27 20:16:00,38.1,35.9,29.74,SSE,158,2.9,3.3,92,0.00,,,0.02,WUHU216HW,2013-01-28 02:16:00,
2013-01-27 20:21:00,38.3,36.1,29.74,SSE,158,2.0,3.1,92,0.00,,,0.02,WUHU216HW,2013-01-28 02:21:00,
2013-01-27 20:26:00,38.3,36.1,29.74,SE,135,2.2,4.2,92,0.00,,,0.02,WUHU216HW,2013-01-28 02:26:00,
2013-01-27 20:31:00,38.4,36.3,29.74,SSE,158,2.6,4.2,92,0.00,,,0.02,WUHU216HW,2013-01-28 02:31:00,
2013-01-27 20:36:00,38.4,36.3,29.74,SSE,158,2.2,2.6,92,0.00,,,0.02,WUHU216HW,2013-01-28 02:36:00,
2013-01-27 20:41:00,38.4,36.3,29.73,SSE,158,2.6,2.6,92,0.00,,,0.02,WUHU216HW,2013-01-28 02:41:00,
2013-01-27 20:46:00,38.4,36.3,29.74,SE,135,3.1,3.1,92,0.00,,,0.02,WUHU216HW,2013-01-28 02:46:00,
2013-01-27 20:51:00,38.4,36.3,29.74,SE,135,0.8,3.5,92,0.00,,,0.02,WUHU216HW,2013-01-28 02:51:00,
2013-01-27 20:56:00,38.4,36.3,29.73,SSE,158,1.1,3.5,92,0.00,,,0.02,WUHU216HW,2013-01-28 02:56:00,
2013-01-27 21:01:00,38.4,36.3,29.73,SSE,158,0.0,3.8,92,0.00,,,0.02,WUHU216HW,2013-01-28 03:01:00,
2013-01-27 21:06:00,38.4,36.3,29.73,SSE,158,3.5,4.9,92,0.00,,,0.02,WUHU216HW,2013-01-28 03:06:00,
2013-01-27 21:11:00,38.8,36.6,29.73,SSE,158,3.3,4.9,92,0.00,,,0.02,WUHU216HW,2013-01-28 03:11:00,
2013-01-27 21:16:00,38.8,36.6,29.73,SSE,158,2.4,3.5,92,0.00,,,0.02,WUHU216HW,2013-01-28 03:16:00,
2013-01-27 21:21:00,38.8,36.6,29.73,SSE,158,2.6,3.1,92,0.00,,,0.02,WUHU216HW,2013-01-28 03:21:00,
2013-01-27 21:26:00,38.8,36.6,29.73,SSE,158,2.2,3.3,92,0.00,,,0.02,WUHU216HW,2013-01-28 03:26:00,
2013-01-27 21:31:00,39.0,36.8,29.73,SSE,158,2.4,3.8,92,0.00,,,0.02,WUHU216HW,2013-01-28 03:31:00,
2013-01-27 21:36:00,39.0,36.8,29.73,SSE,158,1.1,3.8,92,0.02,,,0.04,WUHU216HW,2013-01-28 03:36:00,
2013-01-27 21:41:00,39.0,36.8,29.73,SSE,158,1.5,4.2,92,0.02,,,0.04,WUHU216HW,2013-01-28 03:41:00,
2013-01-27 21:46:00,39.0,36.8,29.73,SSE,158,2.9,4.2,92,0.02,,,0.04,WUHU216HW,2013-01-28 03:46:00,
2013-01-27 21:51:00,39.2,37.0,29.72,South,180,3.8,3.8,92,0.02,,,0.04,WUHU216HW,2013-01-28 03:51:00,
2013-01-27 21:56:00,39.3,37.2,29.73,South,180,6.2,6.2,92,0.02,,,0.04,WUHU216HW,2013-01-28 03:56:00,
2013-01-27 22:01:00,39.3,37.2,29.72,South,180,1.7,6.2,92,0.02,,,0.04,WUHU216HW,2013-01-28 04:01:00,
2013-01-27 22:06:00,39.5,37.4,29.72,South,180,6.4,6.4,92,0.02,,,0.04,WUHU216HW,2013-01-28 04:06:00,
2013-01-27 22:11:00,39.5,37.4,29.72,SSE,158,2.4,6.4,92,0.02,,,0.04,WUHU216HW,2013-01-28 04:11:00,
2013-01-27 22:16:00,39.7,37.5,29.71,South,180,2.4,6.4,92,0.02,,,0.04,WUHU216HW,2013-01-28 04:16:00,
2013-01-27 22:21:00,39.7,37.5,29.72,SSE,158,3.8,4.2,92,0.02,,,0.04,WUHU216HW,2013-01-28 04:21:00,
2013-01-27 22:26:00,39.7,37.5,29.71,SSE,158,4.0,5.5,92,0.02,,,0.04,WUHU216HW,2013-01-28 04:26:00,
2013-01-27 22:31:00,39.9,37.7,29.71,South,180,3.5,5.5,92,0.02,,,0.04,WUHU216HW,2013-01-28 04:31:00,
2013-01-27 22:36:00,39.9,37.7,29.71,SSE,158,3.1,3.8,92,0.00,,,0.04,WUHU216HW,2013-01-28 04:36:00,
2013-01-27 22:41:00,40.1,37.9,29.71,South,180,2.2,5.8,92,0.00,,,0.04,WUHU216HW,2013-01-28 04:41:00,
2013-01-27 22:46:00,40.1,37.9,29.71,South,180,4.9,5.8,92,0.00,,,0.04,WUHU216HW,2013-01-28 04:46:00,
2013-01-27 22:51:00,40.2,38.1,29.71,South,180,3.8,4.9,92,0.00,,,0.04,WUHU216HW,2013-01-28 04:51:00,
2013-01-27 22:56:00,40.6,38.4,29.71,SSE,158,2.9,4.9,92,0.00,,,0.04,WUHU216HW,2013-01-28 04:56:00,
2013-01-27 23:00:00,40.6,38.4,29.71,South,180,3.5,3.8,92,0.00,,,0.04,WUHU216HW,2013-01-28 05:00:00,
2013-01-27 23:02:00,40.6,38.4,29.71,SSE,158,2.9,3.5,92,0.00,,,0.04,WUHU216HW,2013-01-28 05:02:00,
2013-01-27 23:03:00,40.6,38.4,29.71,SSE,158,2.9,3.5,92,0.00,,,0.04,WUHU216HW,2013-01-28 05:03:00,
2013-01-27 23:08:00,40.8,38.6,29.71,South,180,2.6,9.8,92,0.00,,,0.04,WUHU216HW,2013-01-28 05:08:00,
2013-01-27 23:13:00,41.0,38.8,29.71,SSE,158,7.8,9.8,92,0.00,,,0.04,WUHU216HW,2013-01-28 05:13:00,
2013-01-27 23:18:00,41.5,39.6,29.71,SSW,203,5.1,7.8,93,0.00,,,0.04,WUHU216HW,2013-01-28 05:18:00,
2013-01-27 23:23:00,41.7,39.8,29.71,South,180,8.9,11.4,93,0.00,,,0.04,WUHU216HW,2013-01-28 05:23:00,
2013-01-27 23:28:00,42.0,40.1,29.71,South,180,3.1,11.4,93,0.00,,,0.04,WUHU216HW,2013-01-28 05:28:00,
2013-01-27 23:33:00,42.0,40.1,29.71,South,180,4.2,8.9,93,0.00,,,0.04,WUHU216HW,2013-01-28 05:33:00,
2013-01-27 23:38:00,42.4,40.5,29.71,South,180,4.2,4.9,93,0.00,,,0.04,WUHU216HW,2013-01-28 05:38:00,
2013-01-27 23:43:00,42.6,40.7,29.71,SSW,203,7.3,7.3,93,0.00,,,0.04,WUHU216HW,2013-01-28 05:43:00,
2013-01-27 23:48:00,42.9,41.0,29.71,South,180,5.8,7.3,93,0.00,,,0.04,WUHU216HW,2013-01-28 05:48:00,
2013-01-27 23:53:00,43.1,41.2,29.71,SSE,158,2.0,7.3,93,0.00,,,0.04,WUHU216HW,2013-01-28 05:53:00,
2013-01-27 23:59:00,43.1,41.2,29.71,SSE,158,2.9,6.4,93,0.00,,,0.00,WUHU216HW,2013-01-28 05:59:00,